Вернуться в каталог

FENGYUN 2H AKM

АктивенGEO
NORAD 43497·ROCKET BODY·🇨🇳 China

Запущен Jun 5, 2018 с Xichang Satellite Launch Center

Loading…

TLE

СвежийSource: Space-Track

Эпоха: Sep 14, 2026, 00:05 UTC

1 43497U 18050C   26257.00401620 -.00000101  00000-0  00000-0 0  9999
2 43497   5.0896  75.3746 0087782 328.6343  31.1083  1.00050216 30194

Отслеживайте FENGYUN 2H AKM в реальном времени с AllMySat

Download on the App Store